| time (UTC) | temp F | wind direction | speed MPH | gust MPH | rain 1hr in | rain 24hr in | rain mn in | humidity % | barometer mb |
| 20260831022035 | 73 | 310 | 3.0 | 7.0 | 0.00 | 0.00 | 0.00 | 80 | 1014.5 |
| 20260831021030 | 73 | 297 | 3.0 | 6.0 | 0.00 | 0.00 | 0.00 | 81 | 1014.5 |
| 20260831020026 | 73 | 304 | 2.0 | 4.0 | 0.00 | 0.00 | 0.00 | 82 | 1014.5 |
| 20260831015021 | 73 | 325 | 1.0 | 3.0 | 0.00 | 0.00 | 0.00 | 82 | 1014.5 |
| 20260831014015 | 73 | 333 | 2.0 | 6.0 | 0.00 | 0.00 | 0.00 | 82 | 1014.3 |
| 20260831013112 | 73 | 339 | 1.0 | 2.0 | 0.00 | 0.00 | 0.00 | 82 | 1014.4 |
| 20260831012047 | 73 | 338 | 1.0 | 2.0 | 0.00 | 0.00 | 0.00 | 82 | 1014.5 |
| 20260831011042 | 73 | 351 | 1.0 | 2.0 | 0.00 | 0.00 | 0.00 | 81 | 1014.6 |
| 20260831010016 | 74 | 344 | 0.0 | 2.0 | 0.00 | 0.00 | 0.00 | 80 | 1014.7 |
| 20260831005032 | 74 | 343 | 1.0 | 2.0 | 0.00 | 0.00 | 0.00 | 79 | 1014.8 |
| 20260831004027 | 74 | 331 | 2.0 | 3.0 | 0.00 | 0.00 | 0.00 | 78 | 1014.9 |
| 20260831003023 | 74 | 306 | 3.0 | 4.0 | 0.00 | 0.00 | 0.00 | 78 | 1014.7 |
| 20260831002018 | 74 | 337 | 2.0 | 3.0 | 0.00 | 0.00 | 0.00 | 78 | 1014.8 |
| 20260831001033 | 75 | 342 | 3.0 | 4.0 | 0.00 | 0.00 | 0.00 | 78 | 1014.9 |
| 20260831000049 | 75 | 354 | 2.0 | 4.0 | 0.00 | 0.00 | 0.00 | 79 | 1014.8 |
| 20260830235024 | 75 | 351 | 3.0 | 6.0 | 0.00 | 0.00 | 0.00 | 79 | 1014.8 |
| 20260830234019 | 75 | 347 | 3.0 | 6.0 | 0.00 | 0.00 | 0.00 | 79 | 1014.8 |
| 20260830233035 | 75 | 355 | 3.0 | 4.0 | 0.00 | 0.00 | 0.00 | 80 | 1014.9 |
| 20260830232031 | 75 | 12 | 3.0 | 6.0 | 0.00 | 0.00 | 0.00 | 80 | 1014.9 |
| 20260830231046 | 75 | 19 | 4.0 | 7.0 | 0.00 | 0.00 | 0.00 | 81 | 1014.9 |
| 20260830230021 | 75 | 24 | 3.0 | 6.0 | 0.00 | 0.00 | 0.00 | 82 | 1014.9 |
| 20260830225016 | 76 | 28 | 2.0 | 6.0 | 0.00 | 0.00 | 0.00 | 83 | 1014.8 |
| 20260830224032 | 76 | 46 | 3.0 | 8.0 | 0.00 | 0.00 | 0.00 | 83 | 1014.8 |
| 20260830223027 | 76 | 45 | 2.0 | 6.0 | 0.00 | 0.00 | 0.00 | 84 | 1014.8 |
| 20260830222022 | 76 | 52 | 3.0 | 7.0 | 0.00 | 0.00 | 0.00 | 84 | 1014.7 |
| 20260830221017 | 76 | 49 | 3.0 | 9.0 | 0.00 | 0.00 | 0.00 | 84 | 1014.8 |
| 20260830220032 | 76 | 39 | 2.0 | 7.0 | 0.00 | 0.00 | 0.00 | 83 | 1014.8 |
| 20260830215028 | 76 | 52 | 3.0 | 7.0 | 0.00 | 0.00 | 0.00 | 83 | 1014.8 |
| 20260830214023 | 76 | 51 | 3.0 | 7.0 | 0.00 | 0.00 | 0.00 | 83 | 1014.7 |
| 20260830213038 | 76 | 56 | 3.0 | 8.0 | 0.00 | 0.00 | 0.00 | 83 | 1014.5 |
| 20260830212033 | 77 | 59 | 3.0 | 7.0 | 0.00 | 0.00 | 0.00 | 82 | 1014.5 |
| 20260830211028 | 77 | 52 | 4.0 | 11.0 | 0.00 | 0.00 | 0.00 | 82 | 1014.5 |
| 20260830210104 | 77 | 47 | 4.0 | 10.0 | 0.00 | 0.00 | 0.00 | 82 | 1014.4 |
| 20260830205019 | 77 | 44 | 4.0 | 10.0 | 0.00 | 0.00 | 0.00 | 82 | 1014.3 |
| 20260830204034 | 77 | 53 | 4.0 | 11.0 | 0.00 | 0.00 | 0.00 | 81 | 1014.3 |
| 20260830203029 | 77 | 60 | 3.0 | 9.0 | 0.00 | 0.00 | 0.00 | 81 | 1014.2 |
| 20260830202024 | 78 | 62 | 2.0 | 7.0 | 0.00 | 0.00 | 0.00 | 81 | 1014.1 |
| 20260830201020 | 78 | 55 | 4.0 | 9.0 | 0.00 | 0.00 | 0.00 | 82 | 1014.0 |
| 20260830200015 | 78 | 56 | 2.0 | 8.0 | 0.00 | 0.00 | 0.00 | 82 | 1014.0 |
| 20260830195030 | 78 | 46 | 4.0 | 8.0 | 0.00 | 0.00 | 0.00 | 83 | 1013.9 |
| 20260830194026 | 78 | 55 | 1.0 | 6.0 | 0.00 | 0.00 | 0.00 | 83 | 1013.6 |
| 20260830193021 | 78 | 61 | 3.0 | 10.0 | 0.00 | 0.00 | 0.00 | 82 | 1013.5 |
| 20260830192017 | 78 | 57 | 2.0 | 7.0 | 0.00 | 0.00 | 0.00 | 80 | 1013.3 |
| 20260830191052 | 78 | 64 | 1.0 | 4.0 | 0.00 | 0.00 | 0.00 | 80 | 1013.3 |
| 20260830190027 | 78 | 67 | 1.0 | 6.0 | 0.00 | 0.00 | 0.00 | 80 | 1013.2 |
| 20260830185022 | 78 | 68 | 2.0 | 6.0 | 0.00 | 0.00 | 0.00 | 80 | 1013.2 |
| 20260830184018 | 78 | 62 | 1.0 | 6.0 | 0.00 | 0.00 | 0.00 | 80 | 1013.0 |
| 20260830183033 | 79 | 67 | 2.0 | 7.0 | 0.00 | 0.00 | 0.00 | 78 | 1013.0 |
| 20260830182029 | 79 | 74 | 2.0 | 6.0 | 0.00 | 0.00 | 0.00 | 78 | 1012.9 |
| 20260830181024 | 79 | 82 | 1.0 | 4.0 | 0.00 | 0.00 | 0.00 | 77 | 1013.0 |
| 20260830180019 | 80 | 70 | 2.0 | 7.0 | 0.00 | 0.00 | 0.00 | 76 | 1012.9 |
| 20260830175054 | 80 | 74 | 2.0 | 7.0 | 0.00 | 0.00 | 0.00 | 76 | 1012.9 |
| 20260830174029 | 80 | 71 | 2.0 | 6.0 | 0.00 | 0.00 | 0.00 | 76 | 1012.9 |
| 20260830173105 | 80 | 86 | 2.0 | 9.0 | 0.00 | 0.00 | 0.00 | 75 | 1013.0 |
| 20260830172020 | 80 | 81 | 3.0 | 7.0 | 0.00 | 0.00 | 0.00 | 75 | 1013.0 |
| 20260830171015 | 80 | 91 | 5.0 | 8.0 | 0.00 | 0.00 | 0.00 | 76 | 1012.8 |
| 20260830170030 | 80 | 102 | 4.0 | 10.0 | 0.00 | 0.00 | 0.00 | 74 | 1012.9 |
| 20260830165026 | 81 | 96 | 5.0 | 9.0 | 0.00 | 0.00 | 0.00 | 74 | 1012.9 |
| 20260830164021 | 81 | 101 | 5.0 | 13.0 | 0.00 | 0.00 | 0.00 | 74 | 1013.1 |
| 20260830163017 | 81 | 120 | 5.0 | 10.0 | 0.00 | 0.00 | 0.00 | 74 | 1013.0 |
| 20260830162032 | 81 | 107 | 4.0 | 10.0 | 0.00 | 0.00 | 0.00 | 73 | 1013.0 |
| 20260830161027 | 81 | 93 | 3.0 | 10.0 | 0.00 | 0.00 | 0.00 | 75 | 1013.1 |
| 20260830160023 | 81 | 143 | 7.0 | 11.0 | 0.00 | 0.00 | 0.00 | 74 | 1013.1 |
| 20260830155018 | 81 | 128 | 8.0 | 13.0 | 0.00 | 0.00 | 0.00 | 75 | 1013.3 |
| 20260830154033 | 81 | 117 | 7.0 | 15.0 | 0.00 | 0.00 | 0.00 | 76 | 1013.2 |
| 20260830153029 | 81 | 122 | 8.0 | 17.0 | 0.00 | 0.00 | 0.00 | 76 | 1013.2 |
| 20260830152104 | 80 | 115 | 9.0 | 14.0 | 0.00 | 0.00 | 0.00 | 76 | 1013.5 |
| 20260830151019 | 81 | 125 | 7.0 | 14.0 | 0.00 | 0.00 | 0.00 | 74 | 1013.4 |
| 20260830150035 | 81 | 92 | 9.0 | 15.0 | 0.00 | 0.00 | 0.00 | 74 | 1013.6 |
| 20260830145031 | 81 | 122 | 7.0 | 16.0 | 0.00 | 0.00 | 0.00 | 74 | 1013.7 |
| 20260830144026 | 80 | 122 | 7.0 | 15.0 | 0.00 | 0.00 | 0.00 | 73 | 1013.9 |
| 20260830143020 | 81 | 107 | 9.0 | 16.0 | 0.00 | 0.00 | 0.00 | 71 | 1013.9 |
| 20260830142036 | 82 | 129 | 8.0 | 17.0 | 0.00 | 0.00 | 0.00 | 66 | 1014.0 |
| 20260830141031 | 82 | 107 | 7.0 | 15.0 | 0.00 | 0.00 | 0.00 | 64 | 1013.9 |
| 20260830140027 | 82 | 117 | 7.0 | 14.0 | 0.00 | 0.00 | 0.00 | 63 | 1014.2 |
| 20260830135022 | 82 | 120 | 5.0 | 8.0 | 0.00 | 0.00 | 0.00 | 60 | 1014.2 |
| 20260830134037 | 82 | 112 | 7.0 | 14.0 | 0.00 | 0.00 | 0.00 | 59 | 1014.4 |
| 20260830133033 | 83 | 111 | 5.0 | 11.0 | 0.00 | 0.00 | 0.00 | 55 | 1014.4 |
| 20260830132049 | 82 | 115 | 9.0 | 14.0 | 0.00 | 0.00 | 0.00 | 52 | 1014.6 |
| 20260830131023 | 82 | 137 | 9.0 | 14.0 | 0.00 | 0.00 | 0.00 | 53 | 1014.7 |
| 20260830130019 | 83 | 134 | 7.0 | 11.0 | 0.00 | 0.00 | 0.00 | 48 | 1014.7 |
| 20260830125035 | 83 | 134 | 11.0 | 17.0 | 0.00 | 0.00 | 0.00 | 45 | 1014.8 |
| 20260830124051 | 83 | 131 | 9.0 | 16.0 | 0.00 | 0.00 | 0.00 | 46 | 1015.0 |
| 20260830123026 | 83 | 132 | 6.0 | 13.0 | 0.00 | 0.00 | 0.00 | 45 | 1015.0 |
| 20260830122022 | 84 | 128 | 6.0 | 14.0 | 0.00 | 0.00 | 0.00 | 42 | 1015.2 |
| 20260830121037 | 83 | 136 | 8.0 | 13.0 | 0.00 | 0.00 | 0.00 | 42 | 1015.3 |
| 20260830120032 | 84 | 111 | 6.0 | 11.0 | 0.00 | 0.00 | 0.00 | 39 | 1015.2 |
| 20260830115027 | 83 | 101 | 4.0 | 10.0 | 0.00 | 0.00 | 0.00 | 39 | 1015.2 |
| 20260830114022 | 85 | 91 | 3.0 | 10.0 | 0.00 | 0.00 | 0.00 | 37 | 1015.3 |
| 20260830113017 | 84 | 103 | 5.0 | 11.0 | 0.00 | 0.00 | 0.00 | 37 | 1015.4 |
| 20260830112033 | 84 | 122 | 5.0 | 10.0 | 0.00 | 0.00 | 0.00 | 35 | 1015.6 |
| 20260830111028 | 83 | 106 | 6.0 | 13.0 | 0.00 | 0.00 | 0.00 | 36 | 1015.6 |
| 20260830110044 | 83 | 125 | 8.0 | 13.0 | 0.00 | 0.00 | 0.00 | 37 | 1015.7 |
| 20260830105039 | 84 | 119 | 6.0 | 10.0 | 0.00 | 0.00 | 0.00 | 34 | 1015.7 |
| 20260830104054 | 83 | 146 | 5.0 | 8.0 | 0.00 | 0.00 | 0.00 | 33 | 1015.8 |
| 20260830103029 | 83 | 106 | 6.0 | 11.0 | 0.00 | 0.00 | 0.00 | 35 | 1015.8 |
| 20260830102025 | 83 | 97 | 4.0 | 8.0 | 0.00 | 0.00 | 0.00 | 33 | 1015.9 |
| 20260830101020 | 82 | 116 | 3.0 | 9.0 | 0.00 | 0.00 | 0.00 | 38 | 1015.9 |
| 20260830100035 | 82 | 96 | 3.0 | 9.0 | 0.00 | 0.00 | 0.00 | 41 | 1016.0 |
| 20260830095031 | 83 | 104 | 5.0 | 11.0 | 0.00 | 0.00 | 0.00 | 40 | 1016.0 |
| 20260830094026 | 82 | 121 | 2.0 | 4.0 | 0.00 | 0.00 | 0.00 | 38 | 1015.9 |
| 20260830093021 | 82 | 89 | 1.0 | 6.0 | 0.00 | 0.00 | 0.00 | 38 | 1015.9 |
| 20260830092016 | 82 | 88 | 2.0 | 7.0 | 0.00 | 0.00 | 0.00 | 40 | 1015.9 |
| 20260830091031 | 82 | 100 | 3.0 | 6.0 | 0.00 | 0.00 | 0.00 | 39 | 1015.9 |
| 20260830090106 | 82 | 84 | 1.0 | 4.0 | 0.00 | 0.00 | 0.00 | 39 | 1015.9 |
| 20260830085021 | 81 | 95 | 3.0 | 6.0 | 0.00 | 0.00 | 0.00 | 40 | 1015.9 |
| 20260830084017 | 83 | 91 | 1.0 | 3.0 | 0.00 | 0.00 | 0.00 | 38 | 1015.9 |
| 20260830083032 | 81 | 55 | 0.0 | 2.0 | 0.00 | 0.00 | 0.00 | 41 | 1015.8 |
| 20260830082028 | 80 | 353 | 1.0 | 3.0 | 0.00 | 0.00 | 0.00 | 41 | 1015.9 |
| 20260830081023 | 79 | 24 | 2.0 | 3.0 | 0.00 | 0.00 | 0.00 | 42 | 1015.7 |
| 20260830080018 | 79 | 33 | 1.0 | 3.0 | 0.00 | 0.00 | 0.00 | 43 | 1015.9 |
| 20260830075053 | 77 | 327 | 1.0 | 3.0 | 0.00 | 0.00 | 0.00 | 45 | 1015.8 |
| 20260830074028 | 76 | 359 | 1.0 | 4.0 | 0.00 | 0.00 | 0.00 | 47 | 1015.6 |
| 20260830073024 | 74 | 332 | 5.0 | 7.0 | 0.00 | 0.00 | 0.00 | 48 | 1015.7 |
| 20260830072019 | 74 | 330 | 4.0 | 7.0 | 0.00 | 0.00 | 0.00 | 50 | 1015.6 |
| 20260830071034 | 73 | 340 | 0.0 | 2.0 | 0.00 | 0.00 | 0.00 | 52 | 1015.7 |
| 20260830070029 | 72 | 334 | 2.0 | 4.0 | 0.00 | 0.00 | 0.00 | 53 | 1015.6 |
| 20260830065025 | 71 | 331 | 2.0 | 4.0 | 0.00 | 0.00 | 0.00 | 53 | 1015.6 |
| 20260830064040 | 71 | 334 | 0.0 | 2.0 | 0.00 | 0.00 | 0.00 | 54 | 1015.6 |
| 20260830063035 | 71 | 321 | 0.0 | 1.0 | 0.00 | 0.00 | 0.00 | 54 | 1015.6 |
| 20260830062031 | 70 | 338 | 0.0 | 2.0 | 0.00 | 0.00 | 0.00 | 56 | 1015.5 |
| 20260830061025 | 70 | 277 | 0.0 | 2.0 | 0.00 | 0.00 | 0.00 | 56 | 1015.4 |
| 20260830060021 | 69 | 252 | 0.0 | 1.0 | 0.00 | 0.00 | 0.00 | 56 | 1015.4 |
| 20260830055016 | 69 | 296 | 0.0 | 2.0 | 0.00 | 0.00 | 0.00 | 56 | 1015.3 |
| 20260830054032 | 70 | 283 | 1.0 | 2.0 | 0.00 | 0.00 | 0.00 | 55 | 1015.2 |
| 20260830053027 | 70 | 283 | 1.0 | 3.0 | 0.00 | 0.00 | 0.00 | 55 | 1015.1 |
| 20260830052023 | 70 | 296 | 1.0 | 3.0 | 0.00 | 0.00 | 0.00 | 55 | 1015.0 |
| 20260830051017 | 70 | 303 | 1.0 | 3.0 | 0.00 | 0.00 | 0.00 | 55 | 1014.9 |
| 20260830050033 | 70 | 319 | 1.0 | 3.0 | 0.00 | 0.00 | 0.00 | 55 | 1014.9 |
| 20260830045028 | 70 | 332 | 0.0 | 2.0 | 0.00 | 0.00 | 0.00 | 55 | 1014.9 |
| 20260830044023 | 70 | 295 | 2.0 | 6.0 | 0.00 | 0.00 | 0.00 | 55 | 1014.7 |
| 20260830043018 | 70 | 311 | 3.0 | 6.0 | 0.00 | 0.00 | 0.00 | 54 | 1014.7 |
| 20260830042034 | 70 | 302 | 4.0 | 7.0 | 0.00 | 0.00 | 0.00 | 54 | 1014.6 |
| 20260830041029 | 71 | 301 | 3.0 | 8.0 | 0.00 | 0.00 | 0.00 | 54 | 1014.7 |
| 20260830040024 | 71 | 299 | 3.0 | 6.0 | 0.00 | 0.00 | 0.00 | 54 | 1014.7 |
| 20260830035020 | 71 | 302 | 2.0 | 6.0 | 0.00 | 0.00 | 0.00 | 54 | 1014.8 |
| 20260830034034 | 70 | 308 | 1.0 | 4.0 | 0.00 | 0.00 | 0.00 | 55 | 1014.8 |
| 20260830033030 | 70 | 298 | 1.0 | 3.0 | 0.00 | 0.00 | 0.00 | 55 | 1014.9 |
| 20260830032025 | 70 | 340 | 1.0 | 2.0 | 0.00 | 0.00 | 0.00 | 55 | 1014.9 |
| 20260830031020 | 70 | 321 | 0.0 | 1.0 | 0.00 | 0.00 | 0.00 | 54 | 1014.9 |
| 20260830030015 | 71 | 328 | 1.0 | 6.0 | 0.00 | 0.00 | 0.00 | 54 | 1014.9 |
| 20260830025031 | 71 | 317 | 2.0 | 3.0 | 0.00 | 0.00 | 0.00 | 54 | 1015.1 |
| 20260830024025 | 71 | 322 | 1.0 | 4.0 | 0.00 | 0.00 | 0.00 | 53 | 1015.1 |
| 20260830023021 | 71 | 317 | 4.0 | 7.0 | 0.00 | 0.00 | 0.00 | 53 | 1015.2 |